Tracking 19969 objects as of 12-Nov-2019
Live streaming from Space Station
objects crossing your sky now
Track the group of recently launched Starlink satellites

COSMOS 1275 DEB

Track COSMOS 1275 DEB now!
10-day predictions


NORAD ID: 12759
Int'l Code: 1981-053DC
Perigee: 863.4 km
Apogee: 936.0 km
Inclination: 82.9 °
Period: 102.8 minutes
Semi major axis: 7270 km
RCS: 0.0125 m2 (small)
Launch date: June 4, 1981
Source: Commonwealth of Independent States (former USSR) (CIS)
Launch site: PLESETSK MISSILE AND SPACE COMPLEX (PKMTR)

Note: This is SATELLITE DEBRIS
aabbcc
Your satellite tracking list
Your tracking list is empty




NASA's NSSDC Master Catalog

Two Line Element Set (TLE):
1 12759U 81053DC  19315.01285264  .00000380  00000-0  24294-3 0  9993
2 12759  82.8595 143.7728 0049982  74.7826  77.3939 14.00356099944799
Source of the keplerian elements: AFSPC